Weather History for KADS - January, 2014

Change the Weather History Date:

Tuesday, January 28, 2014

  Actual Average Record
Temperature  
Mean Temperature 27 °F -  
Max Temperature 33 °F 55 °F 78 °F (2015)
Min Temperature 21 °F 38 °F 15 °F (1997)
Degree Days  
Heating Degree Days 38    
Moisture  
Dew Point 3 °F    
Average Humidity 37    
Maximum Humidity 50    
Minimum Humidity 28    
Precipitation  
Precipitation 0.00 in - - ()
Sea Level Pressure  
Sea Level Pressure 30.42 in    
Wind  
Wind Speed 10 mph (NNE)    
Max Wind Speed 16 mph    
Max Gust Speed 22 mph    
Visibility 12 miles    
Events      
Averages and records for this station are not official NWS values.
T = Trace of Precipitation, MM = Missing Value Source: NWS Daily Summary

Daily Weather History Graph

Daily Weather History Graph

Search for Another Location

Airport or City:

Trip Planner

Search our weather history database for the weather conditions in past years. The results will help you decide how hot, cold, wet, or windy it might be!

Date:

Astronomy

Jan. 28, 2014 Rise Set
Actual Time 7:25 AM CST 5:55 PM CST
Civil Twilight 6:58 AM CST 6:22 PM CST
Nautical Twilight 6:29 AM CST 6:51 PM CST
Astronomical Twilight 5:59 AM CST 7:21 PM CST
Moon 5:05 AM CST (1/28) 3:49 PM CST (1/28)
Length of Visible Light 11h 23m
Length of Day
10h 30m
Waning Crescent, 7% of the Moon is Illuminated
Jan 28
Waning Crescent
Jan 30
New
Feb 6
First Quarter
Feb 14
Full
Feb 22
Last Quarter

Hourly Weather History & Observations

Time (CST) Temp. Windchill Dew Point Humidity Pressure Visibility Wind Dir Wind Speed Gust Speed Precip Events Conditions
12:15 AM 24.8 °F 12.9 °F -4.4 °F 28% 30.37 in 10.0 mi North 13.8 mph 17.3 mph N/A   Scattered Clouds
12:35 AM 24.8 °F 12.9 °F -4.4 °F 28% 30.36 in 10.0 mi NNE 13.8 mph 20.7 mph N/A   Clear
12:55 AM 24.8 °F 11.9 °F -4.0 °F 28% 30.36 in 10.0 mi North 16.1 mph 21.9 mph N/A   Clear
1:15 AM 24.6 °F 13.2 °F -3.8 °F 29% 30.37 in 10.0 mi North 12.7 mph 17.3 mph N/A   Scattered Clouds
1:35 AM 24.6 °F 13.2 °F -3.6 °F 29% 30.37 in 10.0 mi NNE 12.7 mph 20.7 mph N/A   Scattered Clouds
1:55 AM 24.4 °F 12.4 °F -3.3 °F 30% 30.37 in 10.0 mi North 13.8 mph 19.6 mph N/A   Mostly Cloudy
2:15 AM 24.6 °F 13.8 °F -3.1 °F 30% 30.38 in 10.0 mi NNE 11.5 mph - N/A   Overcast
2:35 AM 24.4 °F 13.5 °F -2.6 °F 31% 30.37 in 10.0 mi NNE 11.5 mph - N/A   Overcast
2:55 AM 24.4 °F 13.5 °F -2.4 °F 31% 30.38 in 10.0 mi NNE 11.5 mph 17.3 mph N/A   Overcast
3:15 AM 24.4 °F 12.4 °F -2.4 °F 31% 30.37 in 10.0 mi NNE 13.8 mph - N/A   Overcast
3:35 AM 24.3 °F 12.7 °F -1.8 °F 32% 30.37 in 10.0 mi NNE 12.7 mph 18.4 mph N/A   Overcast
3:55 AM 24.1 °F 12.5 °F -1.5 °F 33% 30.37 in 10.0 mi NNE 12.7 mph 20.7 mph N/A   Mostly Cloudy
4:15 AM 23.7 °F 12.1 °F -1.8 °F 33% 30.38 in 10.0 mi NNE 12.7 mph 18.4 mph N/A   Scattered Clouds
4:35 AM 23.9 °F 15.0 °F -1.7 °F 33% 30.38 in 10.0 mi NE 8.1 mph - N/A   Mostly Cloudy
4:55 AM 23.4 °F 12.2 °F -1.5 °F 34% 30.39 in 10.0 mi NE 11.5 mph 18.4 mph N/A   Mostly Cloudy
5:47 AM 23.0 °F 10.6 °F -0.4 °F 36% 30.38 in 13.0 mi NNE 13.8 mph 21.9 mph N/A   Mostly Cloudy
7:55 AM 21.2 °F 10.1 °F 5.0 °F 50% 30.45 in 20.0 mi North 10.4 mph 19.6 mph N/A   Overcast
9:47 AM 24.8 °F 13.4 °F 1.4 °F 36% 30.50 in 15.0 mi North 12.7 mph 19.6 mph N/A   Mostly Cloudy
10:47 AM 26.6 °F 16.2 °F 1.4 °F 34% 30.51 in 13.0 mi North 11.5 mph 18.4 mph N/A   Mostly Cloudy
11:55 AM 30.2 °F 20.8 °F 3.2 °F 32% 30.49 in 15.0 mi North 11.5 mph - N/A   Scattered Clouds
12:55 PM 32.0 °F 26.4 °F 6.8 °F 35% 30.46 in 13.0 mi North 5.8 mph 16.1 mph N/A   Scattered Clouds
1:47 PM 32.0 °F 23.6 °F 6.8 °F 35% 30.44 in 13.0 mi NNW 10.4 mph 20.7 mph N/A   Mostly Cloudy
2:51 PM 32.0 °F 23.0 °F 10.4 °F 41% 30.41 in 13.0 mi North 11.5 mph - N/A   Mostly Cloudy
3:47 PM 33.8 °F 25.3 °F 10.4 °F 38% 30.40 in 13.0 mi North 11.5 mph 18.4 mph N/A   Mostly Cloudy
4:47 PM 33.8 °F 25.3 °F 8.6 °F 35% 30.42 in 20.0 mi NNW 11.5 mph - N/A   Scattered Clouds
5:49 PM 30.2 °F 21.3 °F 5.0 °F 34% 30.43 in 15.0 mi North 10.4 mph - N/A   Scattered Clouds
6:59 PM 30.2 °F 25.4 °F 8.6 °F 40% 30.45 in 15.0 mi North 4.6 mph - N/A   Clear
7:47 PM 30.2 °F - 8.6 °F 40% 30.45 in 15.0 mi Calm Calm - N/A   Clear
8:47 PM 30.2 °F - 8.6 °F 40% 30.47 in 13.0 mi Calm Calm - N/A   Clear
9:15 PM 30.2 °F - 8.4 °F 40% 30.47 in 10.0 mi Calm Calm - N/A   Clear
9:35 PM 30.4 °F - 8.8 °F 40% 30.47 in 10.0 mi Calm Calm - N/A   Clear
9:47 PM 30.2 °F - 8.6 °F 40% 30.47 in 13.0 mi Calm Calm - N/A   Clear
9:55 PM 30.0 °F - 9.0 °F 41% 30.47 in 10.0 mi Calm Calm - N/A   Clear
10:15 PM 28.9 °F - 8.6 °F 42% 30.47 in 10.0 mi Calm Calm - N/A   Clear
10:35 PM 28.4 °F - 9.3 °F 45% 30.47 in 10.0 mi Calm Calm - N/A   Clear
10:55 PM 28.4 °F - 9.3 °F 45% 30.47 in 10.0 mi Calm Calm - N/A   Clear
11:15 PM 27.9 °F - 10.4 °F 48% 30.48 in 10.0 mi Calm Calm - N/A   Clear
11:35 PM 27.7 °F - 11.1 °F 50% 30.48 in 10.0 mi Calm Calm - N/A   Clear
11:55 PM 27.3 °F - 10.4 °F 49% 30.47 in 10.0 mi Calm Calm - N/A   Clear